Location: Newark
(46.7000°N, 60.6000°W)
Time: 13:37:55
(UTC+00:00)

A-11 Canister half - Pass Details

Date: 29 October 2020
Orbit: 1525 x 1684 km, 47.3° (Epoch: 01 December)

Event Time Altitude Azimuth Distance (km) Brightness Sun altitude
Rises 17:47:18 0° 222° (SW) 4,807 13.0 23.7°
Reaches altitude 10° 17:50:33 10° 218° (SW) 3,801 13.1 23.4°
Maximum altitude 17:59:42 51° 146° (SE) 1,888 10.0 22.5°
Drops below altitude 10° 18:08:37 10° 74° (ENE) 3,712 10.6 21.6°
Sets 18:11:44 0° 69° (ENE) 4,687 11.1 21.3°
